Tracking 18844 objects as of 21-Nov-2017
HD Live streaming from Space Station
objects crossing your sky now

FORMOSAT 3C

Track FORMOSAT 3C now!
10-day predictions
FORMOSAT 3C is classified as:


NORAD ID: 29049
Int'l Code: 2006-011C
Perigee: 777.0 km
Apogee: 830.1 km
Inclination: 72.0 °
Period: 100.8 minutes
Semi major axis: 7174 km
RCS: 0.6004 m2 (medium)
Launch date: April 15, 2006
Source: Taiwan (Republic of China) (ROC)
Launch site: AIR FORCE WESTERN TEST RANGE (AFWTR)
aabbcc
Your satellite tracking list
Your tracking list is empty




NASA's NSSDC Master Catalog

Two Line Element Set (TLE):
1 29049U 06011C   17325.21390950  .00000081  00000-0  48571-4 0  9997
2 29049  72.0196 305.0977 0037028 235.1865 124.5786 14.28603803605450
Source of the keplerian elements: AFSPC